www.pogodaiklimat.ru

ПОГОДА в Лотене, OK

  • Прогноз погоды в Лотене
  • Монитор погоды в Лотене
  • Климат в Лотене

АРХИВ ПОГОДЫ в Лотене

Время (UTC), дата Ветер
(напр.,м/с)
 
Видим.   Явления Облачность Т
(С)
Тd
(С)
f
(%)
Тe
(С)
Тes
(С)
Комфортность

P
(гПа)

Po
(гПа)
Тmin
(С)
Tmax
(С)
R
(мм)
SD
(см)
13:28 21.05 ЮЗ  7
{13} 
16 км    5/5 360 м  +18.9  +17.2  90  +19  +20      961.1         
13:53 21.05 ЮЗ  7
{13} 
16 км    2/0 3300 м
[средняя] 
+18.9  +15.0  78  +19  +20    999.5  961.1         
14:53 21.05 ЮЗ  7
{14} 
16 км    ясно  +20.0  +10.6  55  +21  +22  комфорт  999.4  960.8         
15:53 21.05 ЮЗ  8
{13} 
16 км    ясно  +21.1  +10.0  49  +23  +24  комфорт  999.6  961.1         
16:53 21.05 ЮЗ  7
{13} 
16 км    ясно  +22.2  +7.8  40  +23  +26  комфорт  999.3  960.8  +17.8  +22.2     
17:53 21.05 ЮЗ  9
{16} 
16 км    ясно  +23.9  +7.2  34  +24  +24  комфорт  998.6  960.1         
18:53 21.05 ЮЗ  8
{17} 
16 км    ясно  +24.4  +5.6  30  +24  +26  комфорт  998.8  960.1         
19:53 21.05 ЮЗ  8
{14} 
16 км    ясно  +25.6  +5.6  28  +25  +27  комфорт  998.3  959.8         
20:53 21.05 ЮЗ  9
{15} 
16 км    ясно  +26.1  +6.1  28  +26  +26  жарко  997.8  959.5         
21:53 21.05 Ю  10
{13} 
16 км    2/2 1380 м  +25.6  +7.8  32  +26  +26  жарко  997.7  959.1         
22:53 21.05 Ю  8
{11} 
16 км    8/8 1440 м  +24.4  +8.9  37  +25  +25  комфорт  998.0  959.5  +22.2  +26.1     
23:53 21.05 Ю  16 км    8/8 1380 м  +23.3  +9.4  41  +25  +25  комфорт  998.3  959.8         
00:53 22.05 Ю  16 км    10/10 1650 м  +21.1  +10.0  49  +23  +23  комфорт  999.0  960.4         
01:53 22.05 Ю  16 км    10/10 1800 м  +20.0  +10.0  53  +21  +21  комфорт  999.5  960.8         
02:53 22.05 Ю  16 км    10/10 1950 м  +20.0  +10.6  55  +21  +21  комфорт  1000.3  961.7         
03:53 22.05 Ю  16 км    ясно  +18.3  +11.1  63  +18  +18    1001.2  962.4         
04:53 22.05 Ю  16 км    ясно  +17.8  +10.6  63  +18  +18    1001.7  962.7  +16.7  +24.4     
05:53 22.05 Ю  16 км    ясно  +15.6  +10.6  72  +15  +15    1002.1  963.4         
06:53 22.05   16 км    ясно  +14.4  +10.6  78  +14  +14    1002.1  963.4         
07:53 22.05 Ю  16 км    ясно  +15.0  +10.0  72  +14  +14    1002.4  963.7         
08:53 22.05   16 км    ясно  +16.1  +10.0  67  +16  +16    1003.0  964.3         
09:53 22.05   16 км    ясно  +13.9  +11.7  87  +13  +13    1003.6  964.7         
10:53 22.05 В  16 км    ясно  +13.9  +11.7  87  +13  +13    1004.2  965.3  +13.3  +18.3     
11:53 22.05   16 км    ясно  +17.8  +14.4  80  +18  +18    1004.9  966.0         
12:36 22.05   16 км    8/8 570 м  +18.9  +15.6  81  +20  +20      966.3         
12:53 22.05   16 км    10/10 510 м  +18.9  +15.6  81  +20  +20    1005.8  966.6         
13:04 22.05 З  16 км    10/10 420 м  +18.9  +16.1  84  +21  +21  комфорт    966.9         
13:53 22.05   16 км    10/10 330 м  +19.4  +16.1  81  +21  +21  комфорт  1006.7  967.6         
14:50 22.05   16 км    10/10 450 м  +22.0  +18.0  78  +27  +27  душно    967.6         
14:53 22.05   16 км    10/10 450 м  +22.2  +17.8  76  +27  +27  душно  1006.5  967.6         
15:26 22.05   16 км    10/10 630 м  +22.8  +18.3  76  +28  +28  душно    967.3         
15:45 22.05 В  16 км    10/10 810 м  +23.3  +18.9  76  +30  +30  очень
душно 
  967.3         
15:53 22.05 В  16 км    8/8 810 м  +23.9  +19.4  76  +29  +32  душно  1006.2  967.3         
16:53 22.05 Ю  16 км    2/2 690 м  +28.9  +21.7  65  +37  +39  очень
душно 
1005.3  966.6  +14.4  +28.9     
17:53 22.05 Ю  16 км    8/8 960 м  +29.4  +21.7  63  +37  +38  очень
душно 
1004.9  966.3         
18:53 22.05 Ю  14 км  гроза  8/8 1080 м  +28.9  +22.2  67  +38  +39  очень
душно 
1005.2  966.3         
19:14 22.05 Ю  4 км  гроза с дождем  8/5 1380 м
[средняя] 
+26.1  +23.3  85  +35  +39  очень
душно 
  966.3         
19:29 22.05 Ю  2 км  гроза с сильным дождем, дымка  10/8 1170 м
[средняя] 
+25.6  +23.3  87  +34  +35  очень
душно 
  966.3         
19:53 22.05 В  5 км  гроза со слабым дождем  10/8 1050 м
[средняя] 
+25.6  +22.8  85  +34  +35  очень
душно 
1005.4  966.6      8.6   
20:14 22.05   16 км  гроза  8/8 1260 м  +26.1  +21.7  77  +34  +38  очень
душно 
  966.3         
20:27 22.05 ЮВ  13 км    5/5 1260 м  +26.1  +23.3  85  +35  +43  очень
душно 
  966.3         
20:53 22.05 ЮВ  13 км    2/2 1290 м  +28.9  +23.9  74  +40  +49  очень
душно 
1004.6  966.0         
21:53 22.05 Ю  11 км    5/0 2250 м
[средняя] 
+30.6  +23.3  65  +41  +42  опасность
перегрева 
1004.7  966.0         
22:53 22.05 ЮВ  11 км    5/5 1290 м  +28.9  +23.3  72  +39  +40  очень
душно 
1004.2  965.3  +25.0  +30.6  9.1   
23:44 22.05 ЮВ  4
{9} 
14 км  гроза  10/8 1320 м
[средняя] 
+27.8  +22.8  74  +37  +37  очень
душно 
  966.3         
23:53 22.05 Ю  13 км  гроза  10/8 1470 м
[средняя] 
+27.2  +23.3  79  +37  +37  очень
душно 
1005.5  966.9         
00:06 23.05 Ю  7
{10} 
14 км    10/8 1470 м
[средняя] 
+27.8  +22.8  74  +37  +37  очень
душно 
  966.6         
00:53 23.05 Ю  16 км    2/2 1320 м  +26.7  +22.2  76  +35  +35  очень
душно 
1006.3  967.6         

 

Местоположение метеостанции Lawton Municipal Airport: широта 34.5575 долгота -98.4167 высота над уровнем моря 338 м.

В архиве по умолчанию представлена погода в Лотене за последние 1-2 суток. Обновление информации о фактической погоде в базе происходит ежечасно! Архивные данные за месяц целиком и за предыдущие месяцы Вы можете получить, выбрав интересующий диапазон дат из раскрывающегося списка и нажав кнопку "Ввод!".

Внимание! Архив погоды МЕТАР в базе сайта хранится не более 60 дней. Нет смысла пытаться выбрать более раннюю дату.

Внимание! Время в таблицах - всемирное. Для получения местного времени необходимо прибавить поправку, которая в Лотене равна -6 ч.

Ветер - указаны скорость ветра в м/с и направление, откуда дует ветер: С - северный, СВ - северо-восточный, В - восточный, ЮВ - юго-восточный, Ю - южный, ЮЗ - юго-западный, З - западный, СЗ - северо-западный.
Видимость - горизонтальная дальность видимости в метрах или километрах. При видимости от 1 до 10 км при отсутствии осадков обычно наблюдается дымка, при ухудшении видимости до 1 км и менее - туман. В сухую погоду видимость может ухудшаться дымом, пылью или мглою.
Атмосферные явления - указаны явления, наблюдавшиеся в указанный момент времени.
Облачность - указаны через наклонную черту верхняя и нижняя облачность в баллах и высота нижней границы облаков в метрах. Внимание: облачность, как и прочие метеорологические величины в США измеряются автоматическими метеостанциями. Указанные значения в баллах носят условный характер и показывают процент времени, в течение которого, в среднем, лазерный луч высотомера отражался от облаков обратно.
T - Температура воздуха - температура, измеренная на высоте 2 м над землей.
Td - Температура точки росы - температура, при понижении до которой содержащийся в воздухе водяной пар достигнет насыщения.
f - Относительная влажность воздуха - влажноcть воздуха, измеренная на высоте 2 м над землей.
Te - Эффективная температура - температура, которую ощущает одетый по сезону человек в тени. Характеристика душности погоды. При расчете учитывается влияние влажности воздуха и скорости ветра на теплоощущения человека.
Tes - Эффективная температура на солнце - температура, которую ощущает человек, с поправкой на солнечный нагрев. Характеристика знойности погоды. Зависит от высоты солнца над горизонтом, облачности и скорости ветра. Ночью, в пасмурную погоду, а также при ветре 12 м/с и более поправка равна нулю.
P - Атмосферное давление - приведенное к уровню моря атмосферное давление.
Po - Атмосферное давление - измеренное на уровне метеостанции атмосферное давление.
Tmin - Минимальная температура - минимум температуры воздуха на высоте 2 м над землей.
Tmax - Максимальная температура - максимум температуры воздуха на высоте 2 м над землей.
R - Количество осадков - Количество выпавших осадков за 3 или 6 часов, мм.
SD - Снежный покров - Высота снежного покрова, см.